FALCON 9 R/B, 43612

Orbit data source: Space-Track

FALCON 9 R/B, 43612 is space debris in HEO originally from a launch on Mon, 10 Sep 2018 UTC launched from the Air Force Eastern Test Range (AFETR). Debris objects in space refer to the collection of defunct objects orbiting the Earth. Examples of debris include non-operational satellites, rocket bodies, and fragments generated from explosions, collisions, or faulty payload assembly.

Loading next visibility...
FALCON 9 R/B details
Identifier
43612, 2018-069B
Orbit
HEO
Last TLE update1 day ago
Origin
Flag of USSpaceX (US)
ManufacturerSpaceX
MissionSpacecraft
Bus & MotorF9ST2, Unknown motor
Mass~4,000 kg wet, ~4,000 kg dry
Launch date (UTC)
2018-09-10 (6 years ago)
Launch vehicleUnknown
Launch site
Air Force Eastern Test Range (AFETR)
Object type
Payload
Rocket body
Debris
Shape & HBRCyl, 15.53 m
Radar Cross Section39.980 m², Large (>1 m²)

Expand to show TLE details & history

TLE from 1 day ago
0 FALCON 9 R/B
1 43612U 18069B   24347.23840968  .00013801  00000-0  14242-2 0  9998
2 43612  27.0575 327.0203 5447142  45.2322 347.9971  4.92770942105860
Epoch: 2024-12-12T05:43Z
Definitive object data (Epoch: 2024-12-12T05:43:18.596Z)
Latitude-0.00005°
Longitude159.75892°
Altitude1,038.622 km
Speed8.953 km/s
True Right ascension21h 48m 01s
True Declination0° 00' 00"
Sunlit
Object was in daylight at TLE epoch
Visualization TLE readout
Latitude-27.0692°
Longitude71.86021°
Altitude10,191.212 km
Speed4.561 km/s
Apparent Right ascension16h 58m 57s
Apparent Declination-34° 10' 44"
Sunlit
Object is in daylight
Visualization observer readout
Local Sidereal Time08:36:02
Azimuth100.204° ESE
Elevation-46.971°
Doppler factor1
Orbital elements
Apogee altitude16,160.378 km
Perigee altitude264.817 km
Semi-major axis14,590.735 km
Eccentricity0.5447142
Inclination27.0575°
RAAN327.0203°
Arg. of periapsis45.2322°
True anomaly314.94567°
Mean anomaly347.9971°
Eccentric anomaly334.6199°
Mean motion1.23148 °/min
BSTAR0.0014242
Orbital period292.33 mins
Loading maneuver chart data...
Loading historical data...
Loading historical data...
Loading historical data...
Loading historical data...
Loading historical data...
Loading historical data...
Loading historical data...
Other satellites on launch #69 in the year 2018 (2018-09-10 UTC)

FALCON 9 R/B Visibility forecast

Observer location: undefined°, undefined

Span
Click to sort rows by Start time (UTC) header in descending order
Start Az.
Max El. time (UTC)
Max El. Az.
Max El.
End time (UTC)
End Az.
140 mins2024-12-13 11:33:10.227Z248.842° W2024-12-13 12:00:10.227Z203.741° SW25.349°2024-12-13 13:53:10.227Z166.321° S
32 mins2024-12-14 06:46:10.227Z228.85° WSW2024-12-14 06:51:10.227Z172.456° S31.334°2024-12-14 07:18:10.227Z117.679° SE
|